When you browse on this site, cookies collect data to enhance your experience and personalize the content and advertising you see.
Visit our Privacy Policy to learn more. By continuing to use the site, you agree to this use of cookies and data.
  • în România
  • Lista ţărilor
  • Pe 7 zile
  • Temperatura apei
  • Meteo pe hartă
  • Widget-uri
  • user-avatar
    Intrare

    Meteo pe oră la Kaprun

    Astăzi, 15 Septembrie, Duminică

    Timp Temperatura Precipitaţii Vânt Presiune Umiditate
    00:00 +7°C° 0 mm 1 m/s 605 mmHg 92%
    01:00 +7°C° 0 mm 1 m/s 605 mmHg 91%
    02:00 +7°C° 0 mm 1 m/s 604 mmHg 89%
    03:00 +7°C° 0 mm 1 m/s 604 mmHg 87%
    04:00 +7°C° 0 mm 1 m/s 604 mmHg 85%
    05:00 +8°C° 0 mm 1 m/s 604 mmHg 82%
    06:00 +9°C° 0 mm 1 m/s 605 mmHg 79%
    07:00 +11°C° 0 mm 1 m/s 606 mmHg 79%
    08:00 +13°C° 0 mm 1 m/s 607 mmHg 67%
    09:00 +15°C° 0 mm 1 m/s 607 mmHg 56%
    10:00 +17°C° 0 mm 0 m/s 608 mmHg 45%
    11:00 +20°C° 0 mm 1 m/s 608 mmHg 42%
    12:00 +20°C° 0 mm 1 m/s 608 mmHg 40%
    13:00 +21°C° 0 mm 1 m/s 608 mmHg 38%
    14:00 +20°C° 0 mm 1 m/s 608 mmHg 43%
    15:00 +19°C° 0 mm 2 m/s 607 mmHg 47%
    16:00 +18°C° 0 mm 2 m/s 606 mmHg 52%
    17:00 +15°C° 0 mm 1 m/s 605 mmHg 64%
    18:00 +13°C° 0 mm 1 m/s 604 mmHg 77%
    19:00 +10°C° 0 mm 1 m/s 603 mmHg 89%
    20:00 +10°C° 0 mm 1 m/s 603 mmHg 90%
    21:00 +9°C° 0 mm 1 m/s 603 mmHg 90%
    22:00 +9°C° 0 mm 1 m/s 603 mmHg 91%
    23:00 +9°C° 0 mm 1 m/s 602 mmHg 91%

    Mâine, 16 Septembrie, Luni

    Timp Temperatura Precipitaţii Vânt Presiune Umiditate
    00:00 +8°C° 0 mm 1 m/s 602 mmHg 91%
    01:00 +8°C° 0 mm 1 m/s 602 mmHg 91%
    02:00 +8°C° 0 mm 1 m/s 602 mmHg 91%
    03:00 +8°C° 0 mm 1 m/s 601 mmHg 91%
    04:00 +8°C° 0 mm 1 m/s 601 mmHg 91%
    05:00 +9°C° 0 mm 1 m/s 601 mmHg 90%
    06:00 +9°C° 0 mm 1 m/s 602 mmHg 88%
    07:00 +10°C° 0 mm 1 m/s 602 mmHg 87%
    08:00 +12°C° 0 mm 1 m/s 603 mmHg 76%
    09:00 +15°C° 0 mm 1 m/s 604 mmHg 66%
    10:00 +18°C° 0 mm 1 m/s 605 mmHg 55%
    11:00 +18°C° 0 mm 1 m/s 605 mmHg 53%
    12:00 +19°C° 0 mm 1 m/s 605 mmHg 50%
    13:00 +20°C° 0 mm 1 m/s 604 mmHg 47%
    14:00 +19°C° 0.2 mm 1 m/s 604 mmHg 54%
    15:00 +17°C° 0.2 mm 2 m/s 603 mmHg 61%
    16:00 +16°C° 0.2 mm 2 m/s 603 mmHg 68%
    17:00 +14°C° 0.2 mm 2 m/s 602 mmHg 76%
    18:00 +12°C° 0.2 mm 1 m/s 601 mmHg 84%
    19:00 +10°C° 0.2 mm 1 m/s 600 mmHg 92%
    20:00 +10°C° 0 mm 1 m/s 600 mmHg 91%
    21:00 +9°C° 0 mm 1 m/s 600 mmHg 91%
    22:00 +8°C° 0 mm 1 m/s 600 mmHg 90%
    23:00 +8°C° 0 mm 1 m/s 600 mmHg 91%

    Poimâine, 17 Septembrie, Marţi

    Timp Temperatura Precipitaţii Vânt Presiune Umiditate
    00:00 +8°C° 0 mm 1 m/s 599 mmHg 91%
    01:00 +8°C° 0 mm 1 m/s 599 mmHg 91%
    02:00 +8°C° 0 mm 1 m/s 599 mmHg 92%
    03:00 +7°C° 0 mm 1 m/s 599 mmHg 92%
    04:00 +7°C° 0 mm 1 m/s 598 mmHg 93%
    05:00 +8°C° 0 mm 1 m/s 599 mmHg 93%
    06:00 +8°C° 0 mm 1 m/s 599 mmHg 93%
    07:00 +9°C° 0 mm 1 m/s 599 mmHg 93%
    08:00 +11°C° 0.1 mm 1 m/s 600 mmHg 88%
    09:00 +12°C° 0.1 mm 1 m/s 601 mmHg 82%
    10:00 +14°C° 0.1 mm 2 m/s 601 mmHg 76%
    11:00 +14°C° 0.3 mm 2 m/s 601 mmHg 76%
    12:00 +14°C° 0.3 mm 2 m/s 601 mmHg 75%
    13:00 +14°C° 0.3 mm 2 m/s 601 mmHg 75%
    14:00 +14°C° 0.2 mm 2 m/s 601 mmHg 77%
    15:00 +13°C° 0.2 mm 2 m/s 600 mmHg 80%
    16:00 +12°C° 0.2 mm 2 m/s 600 mmHg 82%
    17:00 +10°C° 0.1 mm 2 m/s 599 mmHg 87%
    18:00 +8°C° 0.1 mm 2 m/s 599 mmHg 91%
    19:00 +7°C° 0.1 mm 2 m/s 598 mmHg 96%
    20:00 +7°C° 0 mm 2 m/s 598 mmHg 96%
    21:00 +6°C° 0 mm 2 m/s 599 mmHg 96%
    22:00 +6°C° 0 mm 2 m/s 599 mmHg 97%
    23:00 +6°C° 0 mm 2 m/s 599 mmHg 97%

    18 Septembrie, Miercuri

    Timp Temperatura Precipitaţii Vânt Presiune Umiditate
    00:00 +7°C° 0 mm 1 m/s 599 mmHg 96%
    01:00 +6°C° 0 mm 1 m/s 599 mmHg 96%
    02:00 +6°C° 0 mm 1 m/s 599 mmHg 96%
    03:00 +6°C° 0 mm 1 m/s 598 mmHg 96%
    04:00 +6°C° 0 mm 1 m/s 598 mmHg 96%
    05:00 +6°C° 0 mm 1 m/s 599 mmHg 96%
    06:00 +6°C° 0 mm 1 m/s 599 mmHg 95%
    07:00 +6°C° 0 mm 1 m/s 599 mmHg 94%
    08:00 +7°C° 0 mm 1 m/s 599 mmHg 90%
    09:00 +7°C° 0 mm 1 m/s 600 mmHg 86%
    10:00 +8°C° 0 mm 1 m/s 600 mmHg 83%
    11:00 +9°C° 0 mm 1 m/s 600 mmHg 78%
    12:00 +10°C° 0 mm 1 m/s 601 mmHg 73%
    13:00 +9°C° 0 mm 2 m/s 601 mmHg 68%
    14:00 +9°C° 0 mm 2 m/s 600 mmHg 71%
    15:00 +8°C° 0 mm 2 m/s 600 mmHg 75%
    16:00 +8°C° 0 mm 2 m/s 600 mmHg 78%
    17:00 +7°C° 0 mm 2 m/s 599 mmHg 81%
    18:00 +7°C° 0 mm 1 m/s 599 mmHg 85%
    19:00 +6°C° 0 mm 1 m/s 599 mmHg 89%
    20:00 +5°C° 0 mm 1 m/s 599 mmHg 90%
    21:00 +4°C° 0 mm 1 m/s 599 mmHg 91%
    22:00 +3°C° 0 mm 1 m/s 599 mmHg 92%
    23:00 +3°C° 0 mm 1 m/s 599 mmHg 92%

    19 Septembrie, Joi

    Timp Temperatura Precipitaţii Vânt Presiune Umiditate
    00:00 +3°C° 0 mm 1 m/s 599 mmHg 91%
    01:00 +2°C° 0 mm 1 m/s 598 mmHg 91%
    02:00 +2°C° 0 mm 1 m/s 598 mmHg 90%
    03:00 +2°C° 0 mm 1 m/s 598 mmHg 89%
    04:00 +1°C° 0 mm 1 m/s 598 mmHg 89%
    05:00 +1°C° 0 mm 1 m/s 598 mmHg 88%
    06:00 +2°C° 0 mm 1 m/s 598 mmHg 87%
    07:00 +2°C° 0 mm 1 m/s 598 mmHg 86%
    08:00 +2°C° 0 mm 2 m/s 599 mmHg 79%
    09:00 +4°C° 0 mm 2 m/s 600 mmHg 72%
    10:00 +5°C° 0 mm 2 m/s 600 mmHg 65%
    11:00 +6°C° 0 mm 2 m/s 601 mmHg 60%
    12:00 +7°C° 0 mm 2 m/s 601 mmHg 54%
    13:00 +8°C° 0 mm 3 m/s 601 mmHg 49%
    14:00 +7°C° 0 mm 3 m/s 601 mmHg 52%
    15:00 +5°C° 0 mm 3 m/s 601 mmHg 54%
    16:00 +5°C° 0 mm 3 m/s 600 mmHg 57%
    17:00 +2°C° 0 mm 3 m/s 600 mmHg 69%
    18:00 +1°C° 0 mm 2 m/s 599 mmHg 80%
    19:00 -2°C° 0 mm 2 m/s 598 mmHg 92%
    20:00 -2°C° 0 mm 2 m/s 599 mmHg 91%
    21:00 -2°C° 0 mm 2 m/s 599 mmHg 91%
    22:00 -3°C° 0 mm 2 m/s 600 mmHg 90%
    23:00 -3°C° 0 mm 2 m/s 600 mmHg 89%

    20 Septembrie, Vineri

    Timp Temperatura Precipitaţii Vânt Presiune Umiditate
    00:00 -3°C° 0 mm 2 m/s 600 mmHg 88%
    01:00 -2°C° 0 mm 1 m/s 599 mmHg 88%
    02:00 -2°C° 0 mm 1 m/s 599 mmHg 86%
    03:00 -3°C° 0 mm 1 m/s 599 mmHg 84%
    04:00 -5°C° 0 mm 2 m/s 599 mmHg 83%
    05:00 -2°C° 0 mm 1 m/s 599 mmHg 76%
    06:00 -2°C° 0 mm 1 m/s 600 mmHg 69%
    07:00 -1°C° 0 mm 1 m/s 600 mmHg 61%
    08:00 -1°C° 0 mm 2 m/s 601 mmHg 52%
    09:00 +2°C° 0 mm 2 m/s 602 mmHg 43%
    10:00 +5°C° 0 mm 2 m/s 603 mmHg 34%
    11:00 +6°C° 0 mm 2 m/s 603 mmHg 33%
    12:00 +7°C° 0 mm 2 m/s 604 mmHg 31%
    13:00 +8°C° 0 mm 2 m/s 604 mmHg 30%
    14:00 +7°C° 0 mm 2 m/s 603 mmHg 34%
    15:00 +7°C° 0 mm 2 m/s 603 mmHg 37%
    16:00 +7°C° 0 mm 2 m/s 603 mmHg 40%
    17:00 +4°C° 0 mm 2 m/s 602 mmHg 55%
    18:00 +2°C° 0 mm 1 m/s 601 mmHg 69%
    19:00 -1°C° 0 mm 1 m/s 600 mmHg 84%
    20:00 -1°C° 0 mm 1 m/s 600 mmHg 83%
    21:00 -1°C° 0 mm 1 m/s 600 mmHg 82%
    22:00 -2°C° 0 mm 1 m/s 600 mmHg 81%
    23:00 -2°C° 0 mm 1 m/s 600 mmHg 80%
    Arată mai mult